sat.trackr.live / text

‹ back to catalog

STARLINK-36202

NORAD 67094 · 2025-298V

PAYLOAD ACTIVE UNKNOWN

§ Identity

Operator
Country
US
Launch date
2025-12-14
Launch site
AFWTR
Launch vehicle
Mass (kg)
RCS (m²)

Purposes: comms

External: N2YO · Heavens-Above · Gunter

§ Orbital elements

Epoch: 2026-05-25T03:31:15.444192Z

Period
96.11 min
Inclination
70.0009°
Eccentricity
0.0004139
Mean motion
14.98345933 rev/d
Perigee alt
569.1 km
Apogee alt
574.9 km
Semi-major
6,950.1 km
B*
3.3322e-4
RAAN
181.5322°
Arg perigee
266.2762°
Mean anomaly
93.7924°
Rev number
2,467

§ Raw data

STARLINK-362021 67094U 25298V   26145.14670653  .00003887  00000+0  33322-3 0  99932 67094  70.0009 181.5322 0004139 266.2762  93.7924 14.98345933 24676

JSON: /api/v1/satellites/67094 · /tle

For live sub-satellite position, see the globe view (requires WebGL).

§ Visibility from observer

Set your observer location to see the next 7 days of passes ≥ 10°. The values pass through the URL so the page stays shareable.

No JS? Fill the form by hand. The geolocation button needs JavaScript.